����,���ϕ���(m/s),���ϕ���,�ő�u�ԕ���(m/s),�ő啗��������,�C��(��),���x(%),10���Ԉړ��ώZ�J��(mm),1���Ԉړ��ώZ�J��(mm),���J��(mm),�݌v�J��(mm)
2021-11-08T00:00:00+09:00,0.2,�É�,0.9,��,9.3,96.2,0,0,0,0
2021-11-08T00:01:00+09:00,0.2,�É�,0.9,��,9.3,96.3,0,0,0,0
2021-11-08T00:02:00+09:00,0.2,�É�,0.9,��,9.3,96.3,0,0,0,0
2021-11-08T00:03:00+09:00,0.2,�É�,0.9,��,9.3,96.3,0,0,0,0
2021-11-08T00:04:00+09:00,0.2,�É�,0.9,��,9.3,96.3,0,0,0,0
2021-11-08T00:05:00+09:00,0.1,�É�,0.5,���k��,9.3,96.3,0,0,0,0
2021-11-08T00:06:00+09:00,0.1,�É�,0.7,��,9.3,96.3,0,0,0,0
2021-11-08T00:07:00+09:00,0.2,�É�,0.8,��,9.3,96.3,0,0,0,0
2021-11-08T00:08:00+09:00,0.2,�É�,0.8,��,9.3,96.3,0,0,0,0
2021-11-08T00:09:00+09:00,0.3,���k��,0.8,��,9.3,96.4,0,0,0,0
2021-11-08T00:10:00+09:00,0.4,���k��,1,�k��,9.3,96.4,0,0,0,0
2021-11-08T00:11:00+09:00,0.5,���k��,1.3,�k�k��,9.2,96.3,0,0,0,0
2021-11-08T00:12:00+09:00,0.6,���k��,1.4,�k��,9.2,96.2,0,0,0,0
2021-11-08T00:13:00+09:00,0.7,���k��,1.7,�k��,9.1,96.2,0,0,0,0
2021-11-08T00:14:00+09:00,0.8,���k��,1.7,�k��,9,96.2,0,0,0,0
2021-11-08T00:15:00+09:00,0.9,�k��,1.7,�k��,9.2,96.3,0,0,0,0
2021-11-08T00:16:00+09:00,1,�k��,1.7,�k��,9.1,96.4,0,0,0,0
2021-11-08T00:17:00+09:00,1.1,�k��,1.7,�k��,9.1,96.4,0,0,0,0
2021-11-08T00:18:00+09:00,1.1,�k��,1.7,�k��,9.1,96.4,0,0,0,0
2021-11-08T00:19:00+09:00,1.2,�k��,1.7,�k��,9.1,96.5,0,0,0,0
2021-11-08T00:20:00+09:00,1.2,�k��,1.7,�k��,9.2,96.6,0,0,0,0
2021-11-08T00:21:00+09:00,1.2,�k��,1.7,�k��,9.2,96.6,0,0,0,0
2021-11-08T00:22:00+09:00,1.1,�k��,1.7,�k��,9.1,96.6,0,0,0,0
2021-11-08T00:23:00+09:00,1,���k��,1.6,�k��,9.1,96.6,0,0,0,0
2021-11-08T00:24:00+09:00,1,���k��,1.6,�k��,9.1,96.6,0,0,0,0
2021-11-08T00:25:00+09:00,1,���k��,1.4,��,9.1,96.6,0,0,0,0
2021-11-08T00:26:00+09:00,1,���k��,1.4,��,9.2,96.7,0,0,0,0
2021-11-08T00:27:00+09:00,1,���k��,1.8,���k��,9.2,96.8,0,0,0,0
2021-11-08T00:28:00+09:00,1.1,���k��,1.9,���k��,9.2,96.8,0,0,0,0
2021-11-08T00:29:00+09:00,1.1,���k��,2,���k��,9.2,96.8,0,0,0,0
2021-11-08T00:30:00+09:00,1.2,��,2,���k��,9.2,96.7,0,0,0,0
2021-11-08T00:31:00+09:00,1.2,��,2,���k��,9.2,96.7,0,0,0,0
2021-11-08T00:32:00+09:00,1.3,��,2,���k��,9.1,96.7,0,0,0,0
2021-11-08T00:33:00+09:00,1.3,��,2,���k��,9.1,96.7,0,0,0,0
2021-11-08T00:34:00+09:00,1.4,��,2,���k��,9.2,96.8,0,0,0,0
2021-11-08T00:35:00+09:00,1.3,��,2,���k��,9.1,96.8,0,0,0,0
2021-11-08T00:36:00+09:00,1.3,��,2,���k��,9.1,96.7,0,0,0,0
2021-11-08T00:37:00+09:00,1.2,���k��,2,���k��,9,96.6,0,0,0,0
2021-11-08T00:38:00+09:00,1.1,���k��,2,���k��,8.9,96.5,0,0,0,0
2021-11-08T00:39:00+09:00,1.1,���k��,1.8,��,8.9,96.4,0,0,0,0
2021-11-08T00:40:00+09:00,1,���k��,1.8,��,8.9,96.5,0,0,0,0
2021-11-08T00:41:00+09:00,0.9,�k��,1.8,��,9,96.6,0,0,0,0
2021-11-08T00:42:00+09:00,0.8,�k��,1.5,��,9,96.7,0,0,0,0
2021-11-08T00:43:00+09:00,0.7,�k�k��,1.4,���k��,9,96.8,0,0,0,0
2021-11-08T00:44:00+09:00,0.7,�k�k��,1.1,�k�k��,9,96.8,0,0,0,0
2021-11-08T00:45:00+09:00,0.7,�k�k��,1.1,�k�k��,8.8,96.5,0,0,0,0
2021-11-08T00:46:00+09:00,0.7,�k,1.1,�k�k��,8.8,96.4,0,0,0,0
2021-11-08T00:47:00+09:00,0.7,�k,1.1,�k�k��,8.8,96.4,0,0,0,0
2021-11-08T00:48:00+09:00,0.6,�k,1.1,�k�k��,8.8,96.5,0,0,0,0
2021-11-08T00:49:00+09:00,0.6,�k,1.3,�k��,8.8,96.6,0,0,0,0
2021-11-08T00:50:00+09:00,0.7,�k,1.3,�k��,8.8,96.6,0,0,0,0
2021-11-08T00:51:00+09:00,0.7,�k�k��,1.3,�k��,8.7,96.5,0,0,0,0
2021-11-08T00:52:00+09:00,0.7,�k�k��,1.3,�k��,8.7,96.5,0,0,0,0
2021-11-08T00:53:00+09:00,0.8,�k�k��,1.3,�k��,8.7,96.6,0,0,0,0
2021-11-08T00:54:00+09:00,0.8,�k��,1.3,�k��,8.8,96.7,0,0,0,0
2021-11-08T00:55:00+09:00,0.8,�k��,1.3,�k��,8.8,96.8,0,0,0,0
2021-11-08T00:56:00+09:00,0.7,�k��,1.3,�k��,8.9,96.8,0,0,0,0
2021-11-08T00:57:00+09:00,0.7,���k��,1.3,�k��,8.9,97,0,0,0,0
2021-11-08T00:58:00+09:00,0.8,���k��,1.3,�k��,9,97,0,0,0,0
2021-11-08T00:59:00+09:00,0.7,���k��,1.2,��,8.9,96.9,0,0,0,0
2021-11-08T01:00:00+09:00,0.7,���k��,1.2,��,8.9,96.8,0,0,0,0
2021-11-08T01:01:00+09:00,0.7,��,1.2,��,9,96.9,0,0,0,0
2021-11-08T01:02:00+09:00,0.7,��,1.2,��,8.9,96.9,0,0,0,0
2021-11-08T01:03:00+09:00,0.7,��,1.2,��,9,96.9,0,0,0,0
2021-11-08T01:04:00+09:00,0.7,��,1.5,���k��,9,96.9,0,0,0,0
2021-11-08T01:05:00+09:00,0.8,��,1.5,���k��,9.1,97.1,0,0,0,0
2021-11-08T01:06:00+09:00,0.9,��,1.5,���k��,9.1,97,0,0,0,0
2021-11-08T01:07:00+09:00,0.9,��,1.5,���k��,9,96.9,0,0,0,0
2021-11-08T01:08:00+09:00,0.8,���k��,1.5,���k��,9.1,96.9,0,0,0,0
2021-11-08T01:09:00+09:00,0.8,���k��,1.5,���k��,9.1,97,0,0,0,0
2021-11-08T01:10:00+09:00,0.8,���k��,1.5,���k��,9,96.9,0,0,0,0
2021-11-08T01:11:00+09:00,0.9,��,1.8,���쐼,9,96.8,0,0,0,0
2021-11-08T01:12:00+09:00,0.9,��,1.8,���쐼,9,96.9,0,0,0,0
2021-11-08T01:13:00+09:00,0.9,��,1.8,���쐼,9,96.8,0,0,0,0
2021-11-08T01:14:00+09:00,0.9,��,1.8,���쐼,9,96.8,0,0,0,0
2021-11-08T01:15:00+09:00,0.8,��,1.8,���쐼,9,96.8,0,0,0,0
2021-11-08T01:16:00+09:00,0.7,���k��,1.8,���쐼,9.1,96.8,0,0,0,0
2021-11-08T01:17:00+09:00,0.7,���k��,1.8,���쐼,9.1,96.8,0,0,0,0
2021-11-08T01:18:00+09:00,0.8,�k��,1.8,���쐼,8.9,96.7,0,0,0,0
2021-11-08T01:19:00+09:00,0.8,�k�k��,1.8,���쐼,8.9,96.6,0,0,0,0
2021-11-08T01:20:00+09:00,0.8,�k�k��,1.8,���쐼,9,96.7,0,0,0,0
2021-11-08T01:21:00+09:00,0.7,�k,1.8,��,8.9,96.6,0,0,0,0
2021-11-08T01:22:00+09:00,0.6,�k,1.8,��,8.9,96.4,0,0,0,0
2021-11-08T01:23:00+09:00,0.5,�k,1.6,�k,8.8,96.5,0,0,0,0
2021-11-08T01:24:00+09:00,0.5,�k,1.6,�k,8.8,96.4,0,0,0,0
2021-11-08T01:25:00+09:00,0.5,�k,1.6,�k,8.9,96.5,0,0,0,0
2021-11-08T01:26:00+09:00,0.5,�k,1.6,�k,8.9,96.6,0,0,0,0
2021-11-08T01:27:00+09:00,0.5,�k,1.6,�k,8.9,96.7,0,0,0,0
2021-11-08T01:28:00+09:00,0.5,�k,0.9,���k��,9,96.7,0,0,0,0
2021-11-08T01:29:00+09:00,0.5,�k�k��,0.9,���k��,8.9,96.6,0,0,0,0
2021-11-08T01:30:00+09:00,0.5,�k��,0.9,���k��,8.9,96.5,0,0,0,0
2021-11-08T01:31:00+09:00,0.5,�k��,0.9,���k��,8.9,96.5,0,0,0,0
2021-11-08T01:32:00+09:00,0.5,���k��,0.9,���k��,9,96.7,0,0,0,0
2021-11-08T01:33:00+09:00,0.5,���k��,0.9,���k��,9.1,96.7,0,0,0,0
2021-11-08T01:34:00+09:00,0.5,�k��,0.9,���k��,9.1,96.8,0,0,0,0
2021-11-08T01:35:00+09:00,0.5,�k��,0.9,���k��,9.1,96.8,0,0,0,0
2021-11-08T01:36:00+09:00,0.4,�k��,0.9,���k��,9.1,96.7,0,0,0,0
2021-11-08T01:37:00+09:00,0.4,�k��,0.9,���k��,9.2,96.8,0,0,0,0
2021-11-08T01:38:00+09:00,0.3,�k��,0.9,�k��,9.2,96.8,0,0,0,0
2021-11-08T01:39:00+09:00,0.3,�k��,0.9,�k��,9.2,96.8,0,0,0,0
2021-11-08T01:40:00+09:00,0.2,�É�,0.9,�k��,9.2,96.8,0,0,0,0
2021-11-08T01:41:00+09:00,0.2,�É�,0.9,�k��,9.2,96.7,0,0,0,0
2021-11-08T01:42:00+09:00,0.3,�k�k��,1.2,��,9.1,96.6,0,0,0,0
2021-11-08T01:43:00+09:00,0.4,�k��,1.3,��,9,96.6,0,0,0,0
2021-11-08T01:44:00+09:00,0.4,�k��,1.3,��,9.1,96.5,0,0,0,0
2021-11-08T01:45:00+09:00,0.4,���k��,1.3,��,9,96.6,0,0,0,0
2021-11-08T01:46:00+09:00,0.5,���k��,1.3,��,9,96.5,0,0,0,0
2021-11-08T01:47:00+09:00,0.5,���k��,1.3,��,9,96.5,0,0,0,0
2021-11-08T01:48:00+09:00,0.7,���k��,1.6,�k��,9,96.6,0,0,0,0
2021-11-08T01:49:00+09:00,0.8,���k��,1.6,�k��,8.9,96.6,0,0,0,0
2021-11-08T01:50:00+09:00,0.8,���k��,1.6,�k��,8.9,96.6,0,0,0,0
2021-11-08T01:51:00+09:00,0.9,���k��,1.6,�k��,9,96.7,0,0,0,0
2021-11-08T01:52:00+09:00,0.9,���k��,1.6,�k��,9,96.8,0,0,0,0
2021-11-08T01:53:00+09:00,0.9,���k��,1.6,�k��,9,96.7,0,0,0,0
2021-11-08T01:54:00+09:00,0.9,���k��,1.6,�k��,9,96.7,0,0,0,0
2021-11-08T01:55:00+09:00,1,���k��,1.6,�k��,9,96.8,0,0,0,0
2021-11-08T01:56:00+09:00,1,���k��,1.6,�k��,9.1,96.8,0,0,0,0
2021-11-08T01:57:00+09:00,0.9,���k��,1.6,�k��,9.1,96.8,0,0,0,0
2021-11-08T01:58:00+09:00,0.9,���k��,1.3,���k��,9,96.8,0,0,0,0
2021-11-08T01:59:00+09:00,0.9,���k��,1.1,��,9,96.7,0,0,0,0
2021-11-08T02:00:00+09:00,0.8,��,1.1,��,9.1,96.8,0,0,0,0
2021-11-08T02:01:00+09:00,0.8,��,1.1,��,9.2,96.9,0,0,0,0
2021-11-08T02:02:00+09:00,0.8,���k��,1.1,��,9.3,96.9,0,0,0,0
2021-11-08T02:03:00+09:00,0.8,���k��,1.1,��,9.3,97.1,0,0,0,0
2021-11-08T02:04:00+09:00,0.8,���k��,1.2,���k��,9.3,97,0,0,0,0
2021-11-08T02:05:00+09:00,0.8,���k��,1.5,���k��,9.3,96.9,0,0,0,0
2021-11-08T02:06:00+09:00,0.9,���k��,1.5,���k��,9.2,96.8,0,0,0,0
2021-11-08T02:07:00+09:00,0.9,���k��,1.7,��,9.2,96.7,0,0,0,0
2021-11-08T02:08:00+09:00,1,���k��,1.7,��,9.1,96.7,0,0,0,0
2021-11-08T02:09:00+09:00,1,���k��,1.7,��,9,96.6,0,0,0,0
2021-11-08T02:10:00+09:00,1,���k��,1.7,��,9,96.5,0,0,0,0
2021-11-08T02:11:00+09:00,0.9,���k��,1.7,��,9.1,96.6,0,0,0,0
2021-11-08T02:12:00+09:00,0.9,���k��,1.7,��,9.1,96.6,0,0,0,0
2021-11-08T02:13:00+09:00,0.8,�k��,1.7,��,9.1,96.6,0,0,0,0
2021-11-08T02:14:00+09:00,0.8,�k��,1.7,��,9.1,96.8,0,0,0,0
2021-11-08T02:15:00+09:00,0.6,�k��,1.7,��,9.1,96.7,0,0,0,0
2021-11-08T02:16:00+09:00,0.5,�k�k��,1.7,��,9,96.6,0,0,0,0
2021-11-08T02:17:00+09:00,0.4,�k�k��,1.5,���k��,9,96.6,0,0,0,0
2021-11-08T02:18:00+09:00,0.3,�k�k��,1.4,���k��,9,96.5,0,0,0,0
2021-11-08T02:19:00+09:00,0.2,�É�,0.6,�k��,8.9,96.5,0,0,0,0
2021-11-08T02:20:00+09:00,0.2,�É�,0.6,�k��,8.8,96.4,0,0,0,0
2021-11-08T02:21:00+09:00,0.3,�k�k��,0.6,�k��,8.8,96.3,0,0,0,0
2021-11-08T02:22:00+09:00,0.3,�k�k��,0.6,�k��,8.7,96.3,0,0,0,0
2021-11-08T02:23:00+09:00,0.3,�k�k��,0.8,�k��,8.7,96.3,0,0,0,0
2021-11-08T02:24:00+09:00,0.4,�k��,0.8,�k��,8.8,96.5,0,0,0,0
2021-11-08T02:25:00+09:00,0.4,�k��,0.8,�k��,8.8,96.6,0,0,0,0
2021-11-08T02:26:00+09:00,0.5,�k��,0.8,�k��,8.9,96.7,0,0,0,0
2021-11-08T02:27:00+09:00,0.5,�k��,0.8,�k��,8.8,96.6,0,0,0,0
2021-11-08T02:28:00+09:00,0.4,�k��,0.8,�k��,8.9,96.6,0,0,0,0
2021-11-08T02:29:00+09:00,0.5,�k�k��,0.8,�k��,8.9,96.7,0,0,0,0
2021-11-08T02:30:00+09:00,0.4,�k�k��,0.8,�k��,9.1,96.9,0,0,0,0
2021-11-08T02:31:00+09:00,0.5,�k�k��,0.8,�k��,9.1,97,0,0,0,0
2021-11-08T02:32:00+09:00,0.5,�k,0.8,�k��,9,96.9,0,0,0,0
2021-11-08T02:33:00+09:00,0.4,�k,0.8,�k��,9,96.7,0,0,0,0
2021-11-08T02:34:00+09:00,0.4,�k,0.7,���k��,8.9,96.7,0,0,0,0
2021-11-08T02:35:00+09:00,0.3,�k,0.7,���k��,8.8,96.5,0,0,0,0
2021-11-08T02:36:00+09:00,0.3,�k,0.8,���쐼,8.9,96.6,0,0,0,0
2021-11-08T02:37:00+09:00,0.4,�k,0.8,���쐼,8.9,96.6,0,0,0,0
2021-11-08T02:38:00+09:00,0.4,�k�k��,1,���쐼,8.9,96.7,0,0,0,0
2021-11-08T02:39:00+09:00,0.5,�k��,1,���쐼,8.9,96.7,0,0,0,0
2021-11-08T02:40:00+09:00,0.6,��,1.1,���k��,8.9,96.7,0,0,0,0
2021-11-08T02:41:00+09:00,0.6,��,1.4,���k��,8.9,96.7,0,0,0,0
2021-11-08T02:42:00+09:00,0.7,��,2.1,��,8.9,96.6,0,0,0,0
2021-11-08T02:43:00+09:00,0.9,��,2.1,��,8.8,96.6,0,0,0,0
2021-11-08T02:44:00+09:00,1,��,2.1,��,8.8,96.5,0,0,0,0
2021-11-08T02:45:00+09:00,1.1,��,2.1,��,8.8,96.5,0,0,0,0
2021-11-08T02:46:00+09:00,1.1,��,2.1,��,8.9,96.6,0,0,0,0
2021-11-08T02:47:00+09:00,1.1,��,2.1,��,8.9,96.7,0,0,0,0
2021-11-08T02:48:00+09:00,1.1,��,2.1,��,8.9,96.7,0,0,0,0
2021-11-08T02:49:00+09:00,1.2,��,2.1,��,8.9,96.7,0,0,0,0
2021-11-08T02:50:00+09:00,1.1,��,2.1,��,8.9,96.7,0,0,0,0
2021-11-08T02:51:00+09:00,1.1,��,2.1,��,8.9,96.7,0,0,0,0
2021-11-08T02:52:00+09:00,1,��,2.1,��,8.9,96.7,0,0,0,0
2021-11-08T02:53:00+09:00,0.8,��,1.7,�쐼,8.8,96.7,0,0,0,0
2021-11-08T02:54:00+09:00,0.7,��,1.5,���쐼,8.8,96.6,0,0,0,0
2021-11-08T02:55:00+09:00,0.6,��,1.4,���쐼,8.8,96.6,0,0,0,0
2021-11-08T02:56:00+09:00,0.6,��,1.4,���쐼,8.7,96.6,0,0,0,0
2021-11-08T02:57:00+09:00,0.6,���k��,1.4,���쐼,8.6,96.5,0,0,0,0
2021-11-08T02:58:00+09:00,0.6,���k��,1.4,���쐼,8.6,96.4,0,0,0,0
2021-11-08T02:59:00+09:00,0.6,���k��,1.1,�k�k��,8.5,96.5,0,0,0,0
2021-11-08T03:00:00+09:00,0.5,�k��,1.1,�k�k��,8.4,96.2,0,0,0,0
2021-11-08T03:01:00+09:00,0.5,�k��,1.1,�k�k��,8.4,96.3,0,0,0,0
2021-11-08T03:02:00+09:00,0.5,�k��,1.1,�k�k��,8.5,96.4,0,0,0,0
2021-11-08T03:03:00+09:00,0.6,�k��,1.1,�k�k��,8.4,96.5,0,0,0,0
2021-11-08T03:04:00+09:00,0.6,�k��,1.1,�k�k��,8.4,96.5,0,0,0,0
2021-11-08T03:05:00+09:00,0.7,�k��,1.1,�k�k��,8.5,96.6,0,0,0,0
2021-11-08T03:06:00+09:00,0.7,�k��,1.2,�k��,8.5,96.7,0,0,0,0
2021-11-08T03:07:00+09:00,0.7,�k��,1.2,�k��,8.5,96.7,0,0,0,0
2021-11-08T03:08:00+09:00,0.7,�k��,1.2,�k��,8.5,96.7,0,0,0,0
2021-11-08T03:09:00+09:00,0.8,�k��,1.4,���k��,8.5,96.7,0,0,0,0
2021-11-08T03:10:00+09:00,0.8,���k��,1.7,���k��,8.5,96.7,0,0,0,0
2021-11-08T03:11:00+09:00,1,���k��,2.1,���k��,8.4,96.6,0,0,0,0
2021-11-08T03:12:00+09:00,1.1,���k��,2.1,���k��,8.5,96.7,0,0,0,0
2021-11-08T03:13:00+09:00,1.2,���k��,2.1,���k��,8.6,96.9,0,0,0,0
2021-11-08T03:14:00+09:00,1.2,���k��,2.1,���k��,8.6,96.9,0,0,0,0
2021-11-08T03:15:00+09:00,1.3,���k��,2.1,���k��,8.6,97,0,0,0,0
2021-11-08T03:16:00+09:00,1.3,���k��,2.1,���k��,8.5,96.8,0,0,0,0
2021-11-08T03:17:00+09:00,1.4,���k��,2.1,���k��,8.5,96.7,0,0,0,0
2021-11-08T03:18:00+09:00,1.4,���k��,2.1,���k��,8.7,96.9,0,0,0,0
2021-11-08T03:19:00+09:00,1.5,���k��,2.4,���k��,8.6,96.9,0,0,0,0
2021-11-08T03:20:00+09:00,1.5,���k��,2.4,���k��,8.6,96.9,0,0,0,0
2021-11-08T03:21:00+09:00,1.6,���k��,2.7,�k��,8.7,96.9,0,0,0,0
2021-11-08T03:22:00+09:00,1.7,���k��,3.2,�k�k��,8.6,97,0,0,0,0
2021-11-08T03:23:00+09:00,1.8,�k��,3.5,�k�k��,8.6,96.9,0,0,0,0
2021-11-08T03:24:00+09:00,2,�k��,3.5,�k�k��,8.6,96.8,0,0,0,0
2021-11-08T03:25:00+09:00,2,�k��,3.5,�k�k��,8.6,96.9,0,0,0,0
2021-11-08T03:26:00+09:00,2.1,�k��,3.5,�k�k��,8.6,96.9,0,0,0,0
2021-11-08T03:27:00+09:00,2.2,�k��,3.5,�k�k��,8.6,96.9,0,0,0,0
2021-11-08T03:28:00+09:00,2.2,�k�k��,3.5,�k�k��,8.7,97,0,0,0,0
2021-11-08T03:29:00+09:00,2.2,�k�k��,3.5,�k�k��,8.8,97.1,0,0,0,0
2021-11-08T03:30:00+09:00,2.1,�k�k��,3.5,�k�k��,8.7,97.1,0,0,0,0
2021-11-08T03:31:00+09:00,2,�k��,3.5,�k�k��,8.7,97,0,0,0,0
2021-11-08T03:32:00+09:00,1.9,�k��,3.5,�k�k��,8.6,97,0,0,0,0
2021-11-08T03:33:00+09:00,1.7,�k��,3.3,�k�k��,8.6,96.8,0,0,0,0
2021-11-08T03:34:00+09:00,1.5,�k��,2.9,�k�k��,8.6,96.8,0,0,0,0
2021-11-08T03:35:00+09:00,1.3,�k��,2.9,�k�k��,8.6,96.9,0,0,0,0
2021-11-08T03:36:00+09:00,1.3,�k��,2.4,�k��,8.6,96.9,0,0,0,0
2021-11-08T03:37:00+09:00,1.2,�k��,2.2,�k��,8.6,96.9,0,0,0,0
2021-11-08T03:38:00+09:00,1.2,�k��,2.2,�k��,8.6,96.9,0,0,0,0
2021-11-08T03:39:00+09:00,1.2,�k��,2.2,�k��,8.6,97,0,0,0,0
2021-11-08T03:40:00+09:00,1.2,�k�k��,2.2,�k��,8.7,97.1,0,0,0,0
2021-11-08T03:41:00+09:00,1.2,�k�k��,2.2,�k��,8.6,97.1,0,0,0,0
2021-11-08T03:42:00+09:00,1.2,�k�k��,2.2,�k��,8.7,97,0,0,0,0
2021-11-08T03:43:00+09:00,1.2,�k�k��,2.2,�k��,8.6,97,0,0,0,0
2021-11-08T03:44:00+09:00,1.1,�k��,2.2,�k��,8.6,96.9,0,0,0,0
2021-11-08T03:45:00+09:00,1.1,�k��,2.2,�k��,8.6,97,0,0,0,0
2021-11-08T03:46:00+09:00,1,�k��,2.2,�k��,8.7,97,0,0,0,0
2021-11-08T03:47:00+09:00,0.9,�k��,2.2,�k��,8.7,97.1,0,0,0,0
2021-11-08T03:48:00+09:00,0.9,���k��,2.4,���k��,8.9,97.2,0,0,0,0
2021-11-08T03:49:00+09:00,0.9,���k��,2.4,���k��,8.9,97.4,0,0,0,0
2021-11-08T03:50:00+09:00,0.9,���k��,2.4,���k��,8.9,97.3,0,0,0,0
2021-11-08T03:51:00+09:00,0.9,���k��,2.4,���k��,8.8,97.1,0,0,0,0
2021-11-08T03:52:00+09:00,0.8,���k��,2.4,���k��,8.7,97,0,0,0,0
2021-11-08T03:53:00+09:00,0.8,���k��,2.4,���k��,8.7,96.9,0,0,0,0
2021-11-08T03:54:00+09:00,0.8,�k��,2.4,���k��,8.6,96.8,0,0,0,0
2021-11-08T03:55:00+09:00,0.8,�k��,2.4,���k��,8.6,96.8,0,0,0,0
2021-11-08T03:56:00+09:00,0.9,�k��,2.4,���k��,8.6,96.8,0,0,0,0
2021-11-08T03:57:00+09:00,1,�k��,2.4,���k��,8.4,96.6,0,0,0,0
2021-11-08T03:58:00+09:00,0.9,�k��,1.7,��,8.3,96.5,0,0,0,0
2021-11-08T03:59:00+09:00,0.8,�k�k��,1.7,��,8.4,96.6,0,0,0,0
2021-11-08T04:00:00+09:00,0.7,�k�k��,1.4,�k��,8.4,96.7,0,0,0,0
2021-11-08T04:01:00+09:00,0.7,�k�k��,1.4,�k��,8.5,96.9,0,0,0,0
2021-11-08T04:02:00+09:00,0.7,�k�k��,1.4,�k��,8.4,96.9,0,0,0,0
2021-11-08T04:03:00+09:00,0.7,�k��,1.4,�k��,8.4,96.8,0,0,0,0
2021-11-08T04:04:00+09:00,0.6,�k��,1.4,�k��,8.5,96.9,0,0,0,0
2021-11-08T04:05:00+09:00,0.6,�k��,1.4,�k��,8.7,97.2,0,0,0,0
2021-11-08T04:06:00+09:00,0.5,�k��,1.4,�k��,8.7,97.2,0,0,0,0
2021-11-08T04:07:00+09:00,0.5,�k��,1.1,���k��,8.7,97.1,0,0,0,0
2021-11-08T04:08:00+09:00,0.5,�k��,1,�k�k��,8.7,97,0,0,0,0
2021-11-08T04:09:00+09:00,0.5,�k��,1,�k�k��,8.6,96.9,0,0,0,0
2021-11-08T04:10:00+09:00,0.4,���k��,1,�k�k��,8.5,96.7,0,0,0,0
2021-11-08T04:11:00+09:00,0.4,���k��,1,�k�k��,8.5,96.8,0,0,0,0
2021-11-08T04:12:00+09:00,0.5,�k��,1,�k�k��,8.5,96.8,0,0,0,0
2021-11-08T04:13:00+09:00,0.6,�k��,1.3,�k�k��,8.4,96.7,0,0,0,0
2021-11-08T04:14:00+09:00,0.6,�k��,1.3,�k�k��,8.4,96.6,0,0,0,0
2021-11-08T04:15:00+09:00,0.6,�k��,1.3,�k�k��,8.4,96.8,0,0,0,0
2021-11-08T04:16:00+09:00,0.6,�k��,1.3,�k�k��,8.4,96.9,0,0,0,0
2021-11-08T04:17:00+09:00,0.7,���k��,1.8,�k��,8.5,96.9,0,0,0,0
2021-11-08T04:18:00+09:00,0.8,���k��,1.8,�k��,8.7,97.2,0,0,0,0
2021-11-08T04:19:00+09:00,0.8,���k��,1.8,�k��,8.7,97.3,0,0,0,0
2021-11-08T04:20:00+09:00,0.8,���k��,1.8,�k��,8.7,97.2,0,0,0,0
2021-11-08T04:21:00+09:00,0.8,���k��,1.8,�k��,8.9,97.3,0,0,0,0
2021-11-08T04:22:00+09:00,0.8,���k��,1.8,�k��,9,97.5,0,0,0,0
2021-11-08T04:23:00+09:00,0.8,���k��,1.8,�k��,9.2,97.5,0,0,0,0
2021-11-08T04:24:00+09:00,0.9,���k��,1.8,�k��,9.1,97.5,0,0,0,0
2021-11-08T04:25:00+09:00,1,���k��,2.2,�k��,9.2,97.4,0,0,0,0
2021-11-08T04:26:00+09:00,1,���k��,2.2,�k��,9.2,97.4,0,0,0,0
2021-11-08T04:27:00+09:00,1,���k��,2.2,�k��,9.1,97.2,0,0,0,0
2021-11-08T04:28:00+09:00,1,���k��,2.2,�k��,9,97.1,0,0,0,0
2021-11-08T04:29:00+09:00,1.1,���k��,2.2,�k��,9,97,0,0,0,0
2021-11-08T04:30:00+09:00,1.2,���k��,2.2,�k��,9,96.9,0,0,0,0
2021-11-08T04:31:00+09:00,1.2,���k��,2.2,�k��,9,97,0,0,0,0
2021-11-08T04:32:00+09:00,1.2,���k��,2.2,�k��,9,97,0,0,0,0
2021-11-08T04:33:00+09:00,1.2,���k��,2.2,�k��,9,97,0,0,0,0
2021-11-08T04:34:00+09:00,1.3,���k��,2.2,�k��,9,97.1,0,0,0,0
2021-11-08T04:35:00+09:00,1.2,���k��,2.2,���k��,9,97,0,0,0,0
2021-11-08T04:36:00+09:00,1.2,���k��,2.2,���k��,9,97,0,0,0,0
2021-11-08T04:37:00+09:00,1.3,�k��,2.6,�k��,9.2,97.1,0,0,0,0
2021-11-08T04:38:00+09:00,1.2,�k��,2.6,�k��,9.1,97.3,0,0,0,0
2021-11-08T04:39:00+09:00,1.2,�k��,2.6,�k��,9.1,97,0,0,0,0
2021-11-08T04:40:00+09:00,1.2,�k��,2.6,�k��,9.1,97,0,0,0,0
2021-11-08T04:41:00+09:00,1.2,�k��,2.6,�k��,9,96.9,0,0,0,0
2021-11-08T04:42:00+09:00,1.3,�k��,2.6,�k��,9,96.9,0,0,0,0
2021-11-08T04:43:00+09:00,1.2,�k��,2.6,�k��,8.9,96.8,0,0,0,0
2021-11-08T04:44:00+09:00,1.1,�k��,2.6,�k��,8.9,96.7,0,0,0,0
2021-11-08T04:45:00+09:00,1.2,�k��,2.6,�k��,8.9,96.8,0,0,0,0
2021-11-08T04:46:00+09:00,1.2,�k��,2.6,�k��,8.9,96.8,0,0,0,0
2021-11-08T04:47:00+09:00,1.2,�k��,1.7,�k��,9,96.9,0,0,0,0
2021-11-08T04:48:00+09:00,1.2,�k��,1.7,�k��,9.2,97.1,0,0,0,0
2021-11-08T04:49:00+09:00,1.1,�k��,1.7,�k��,9.2,97.2,0,0,0,0
2021-11-08T04:50:00+09:00,1.1,�k��,1.7,�k��,9.2,97.1,0,0,0,0
2021-11-08T04:51:00+09:00,1.1,�k��,1.7,�k��,9.3,97.1,0,0,0,0
2021-11-08T04:52:00+09:00,1.1,�k��,1.7,�k��,9.3,97.1,0,0,0,0
2021-11-08T04:53:00+09:00,1,�k�k��,1.7,�k��,9.2,97,0,0,0,0
2021-11-08T04:54:00+09:00,1,�k�k��,1.7,�k��,9.1,96.8,0,0,0,0
2021-11-08T04:55:00+09:00,0.9,�k�k��,1.7,�k��,9,96.7,0,0,0,0
2021-11-08T04:56:00+09:00,0.9,�k�k��,1.5,�k��,9,96.6,0,0,0,0
2021-11-08T04:57:00+09:00,0.8,�k,1.2,�k�k��,8.9,96.6,0,0,0,0
2021-11-08T04:58:00+09:00,0.8,�k,1.2,�k�k��,8.9,96.6,0,0,0,0
2021-11-08T04:59:00+09:00,0.7,�k,1.2,�k�k��,9,96.6,0,0,0,0
2021-11-08T05:00:00+09:00,0.7,�k�k��,1.2,�k�k��,9,96.7,0,0,0,0
2021-11-08T05:01:00+09:00,0.6,�k�k��,1.2,�k�k��,9,96.7,0,0,0,0
2021-11-08T05:02:00+09:00,0.7,�k��,1.2,�k�k��,9,96.7,0,0,0,0
2021-11-08T05:03:00+09:00,0.6,�k��,1.2,�k�k��,9,96.7,0,0,0,0
2021-11-08T05:04:00+09:00,0.6,���k��,1.2,�k�k��,9,96.7,0,0,0,0
2021-11-08T05:05:00+09:00,0.6,��,1.1,�쓌,8.9,96.5,0,0,0,0
2021-11-08T05:06:00+09:00,0.5,��,1.1,�쓌,8.9,96.5,0,0,0,0
2021-11-08T05:07:00+09:00,0.5,��,1.1,�쓌,8.9,96.5,0,0,0,0
2021-11-08T05:08:00+09:00,0.5,��,1.1,�쓌,8.9,96.6,0,0,0,0
2021-11-08T05:09:00+09:00,0.4,��,1.1,�쓌,8.9,96.6,0,0,0,0
2021-11-08T05:10:00+09:00,0.4,���쓌,1.1,�쓌,8.9,96.4,0,0,0,0
2021-11-08T05:11:00+09:00,0.4,���쓌,1.1,�쓌,8.8,96.4,0,0,0,0
2021-11-08T05:12:00+09:00,0.3,���쓌,1.1,�쓌,8.9,96.4,0,0,0,0
2021-11-08T05:13:00+09:00,0.3,���k��,0.8,���쓌,8.9,96.5,0,0,0,0
2021-11-08T05:14:00+09:00,0.3,�k�k��,0.9,�k,8.7,96.3,0,0,0,0
2021-11-08T05:15:00+09:00,0.3,�k,0.9,�k,8.7,96.2,0,0,0,0
2021-11-08T05:16:00+09:00,0.3,�k,0.9,�k,8.8,96.3,0,0,0,0
2021-11-08T05:17:00+09:00,0.3,�k�k��,0.9,�k,8.9,96.4,0,0,0,0
2021-11-08T05:18:00+09:00,0.3,�k��,0.9,�k,9.1,96.7,0,0,0,0
2021-11-08T05:19:00+09:00,0.3,�k��,0.9,�k,9.1,96.8,0,0,0,0
2021-11-08T05:20:00+09:00,0.2,�É�,0.9,�k,9,96.7,0,0,0,0
2021-11-08T05:21:00+09:00,0.2,�É�,0.9,�k,9,96.5,0,0,0,0
2021-11-08T05:22:00+09:00,0.2,�É�,0.9,�k,9,96.4,0,0,0,0
2021-11-08T05:23:00+09:00,0.2,�É�,0.9,�k,9,96.4,0,0,0,0
2021-11-08T05:24:00+09:00,0.2,�É�,0.8,�k�k��,9,96.5,0,0,0,0
2021-11-08T05:25:00+09:00,0.2,�É�,0.8,�쓌,8.9,96.3,0,0,0,0
2021-11-08T05:26:00+09:00,0.2,�É�,0.9,�쓌,8.9,96.3,0,0,0,0
2021-11-08T05:27:00+09:00,0.3,�쓌,0.9,�쓌,8.9,96.2,0,0,0,0
2021-11-08T05:28:00+09:00,0.3,���쓌,0.9,�쓌,8.9,96.3,0,0,0,0
2021-11-08T05:29:00+09:00,0.3,���쓌,0.9,�쓌,9,96.4,0,0,0,0
2021-11-08T05:30:00+09:00,0.3,���쓌,0.9,�쓌,9.2,96.6,0,0,0,0
2021-11-08T05:31:00+09:00,0.2,�É�,0.9,�쓌,9.2,96.6,0,0,0,0
2021-11-08T05:32:00+09:00,0.2,�É�,0.9,�쓌,9.1,96.5,0,0,0,0
2021-11-08T05:33:00+09:00,0.2,�É�,0.9,�쓌,9.1,96.3,0,0,0,0
2021-11-08T05:34:00+09:00,0.2,�É�,0.9,�쓌,9,96.2,0,0,0,0
2021-11-08T05:35:00+09:00,0.1,�É�,0.9,�쓌,9,96.2,0,0,0,0
2021-11-08T05:36:00+09:00,0.1,�É�,0.7,��쓌,9.1,96.3,0,0,0,0
2021-11-08T05:37:00+09:00,0,�É�,0.3,�쓌,9.2,96.3,0,0,0,0
2021-11-08T05:38:00+09:00,0,�É�,0.2,�k�k��,9.1,96.3,0,0,0,0
2021-11-08T05:39:00+09:00,0,�É�,0.5,���k��,9.1,96.2,0,0,0,0
2021-11-08T05:40:00+09:00,0.1,�É�,0.5,���k��,9.1,96.1,0,0,0,0
2021-11-08T05:41:00+09:00,0.1,�É�,0.5,���k��,9.1,96.1,0,0,0,0
2021-11-08T05:42:00+09:00,0.1,�É�,0.5,���k��,9.2,96.2,0,0,0,0
2021-11-08T05:43:00+09:00,0.1,�É�,0.5,���k��,9.2,96.2,0,0,0,0
2021-11-08T05:44:00+09:00,0.1,�É�,0.5,���k��,9.2,96.1,0,0,0,0
2021-11-08T05:45:00+09:00,0.1,�É�,0.5,���k��,9,96,0,0,0,0
2021-11-08T05:46:00+09:00,0.2,�É�,0.5,���k��,8.9,95.7,0,0,0,0
2021-11-08T05:47:00+09:00,0.2,�É�,0.5,���k��,8.8,95.5,0,0,0,0
2021-11-08T05:48:00+09:00,,,,,,,,,,
2021-11-08T05:49:00+09:00,0.3,�k�k��,1,��,8.8,95.6,0,0,0,0
2021-11-08T05:50:00+09:00,0.3,�k��,1,��,8.8,95.7,0,0,0,0
2021-11-08T05:51:00+09:00,0.4,�k��,1.1,���k��,8.8,95.8,0,0,0,0
2021-11-08T05:52:00+09:00,0.5,���k��,1.1,���k��,8.7,95.7,0,0,0,0
2021-11-08T05:53:00+09:00,0.6,���k��,1.1,���k��,8.7,95.6,0,0,0,0
2021-11-08T05:54:00+09:00,0.7,���k��,1.1,���k��,8.7,95.7,0,0,0,0
2021-11-08T05:55:00+09:00,0.7,���k��,1.1,���k��,8.8,95.9,0,0,0,0
2021-11-08T05:56:00+09:00,0.8,���k��,1.1,���k��,8.8,96,0,0,0,0
2021-11-08T05:57:00+09:00,0.8,���k��,1.1,���k��,8.8,96,0,0,0,0
2021-11-08T05:58:00+09:00,0.8,���k��,1.1,���k��,8.8,96.1,0,0,0,0
2021-11-08T05:59:00+09:00,0.8,���k��,1.1,���k��,8.8,96,0,0,0,0
2021-11-08T06:00:00+09:00,0.7,���k��,1.1,���k��,8.8,96,0,0,0,0
2021-11-08T06:01:00+09:00,0.6,���k��,1.1,��,8.8,96,0,0,0,0
2021-11-08T06:02:00+09:00,0.6,���k��,1.1,��,8.8,96.1,0,0,0,0
2021-11-08T06:03:00+09:00,0.5,�k��,1,��,8.8,96.1,0,0,0,0
2021-11-08T06:04:00+09:00,0.5,�k��,1,��,8.8,96.1,0,0,0,0
2021-11-08T06:05:00+09:00,0.4,�k�k��,1,��,8.8,96.1,0,0,0,0
2021-11-08T06:06:00+09:00,0.4,�k�k��,0.7,�k,8.8,96.1,0,0,0,0
2021-11-08T06:07:00+09:00,0.4,�k�k��,0.7,�k,8.8,96.1,0,0,0,0
2021-11-08T06:08:00+09:00,0.3,�k�k��,0.7,�k,8.8,96.2,0,0,0,0
2021-11-08T06:09:00+09:00,0.3,�k�k��,0.7,�k,8.8,96.2,0,0,0,0
2021-11-08T06:10:00+09:00,0.3,�k�k��,0.7,�k,8.8,96.3,0,0,0,0
2021-11-08T06:11:00+09:00,0.3,�k�k��,0.7,�k,8.9,96.4,0,0,0,0
2021-11-08T06:12:00+09:00,0.4,�k�k��,0.7,�k,8.9,96.4,0,0,0,0
2021-11-08T06:13:00+09:00,0.4,�k�k��,0.7,�k��,8.9,96.6,0,0,0,0
2021-11-08T06:14:00+09:00,0.4,�k�k��,0.7,�k��,8.9,96.4,0,0,0,0
2021-11-08T06:15:00+09:00,0.4,�k�k��,0.7,�k��,8.9,96.4,0,0,0,0
2021-11-08T06:16:00+09:00,0.4,�k�k��,0.8,�k��,9,96.5,0,0,0,0
2021-11-08T06:17:00+09:00,0.4,�k�k��,0.8,�k��,9,96.6,0,0,0,0
2021-11-08T06:18:00+09:00,0.5,�k��,0.8,�k��,8.9,96.5,0,0,0,0
2021-11-08T06:19:00+09:00,0.5,�k��,0.8,�k��,8.9,96.5,0,0,0,0
2021-11-08T06:20:00+09:00,0.6,�k��,0.9,�k��,9,96.6,0,0,0,0
2021-11-08T06:21:00+09:00,0.6,�k��,0.9,�k��,8.9,96.6,0,0,0,0
2021-11-08T06:22:00+09:00,0.6,�k��,1,�k��,8.9,96.6,0,0,0,0
2021-11-08T06:23:00+09:00,0.6,�k��,1,�k��,8.9,96.6,0,0,0,0
2021-11-08T06:24:00+09:00,0.6,�k��,1,�k��,9,96.6,0,0,0,0
2021-11-08T06:25:00+09:00,0.7,�k��,1,�k��,9,96.7,0,0,0,0
2021-11-08T06:26:00+09:00,0.7,�k��,1,�k��,9.2,96.8,0,0,0,0
2021-11-08T06:27:00+09:00,0.6,�k��,1,�k��,9.2,96.9,0,0,0,0
2021-11-08T06:28:00+09:00,0.6,�k��,1,�k��,9.3,97,0,0,0,0
2021-11-08T06:29:00+09:00,0.6,�k��,1,�k��,9.2,96.9,0,0,0,0
2021-11-08T06:30:00+09:00,0.5,�k�k��,1,�k��,9.2,96.8,0,0,0,0
2021-11-08T06:31:00+09:00,0.4,�k�k��,1,�k��,9.2,96.8,0,0,0,0
2021-11-08T06:32:00+09:00,0.4,�k�k��,0.9,�k��,9.3,96.8,0,0,0,0